Weather History for Lexington, KY

Change the Weather History Date:

Monday, September 23, 2013

  Actual Average Record
Temperature  
Mean Temperature 61 °F 65 °F  
Max Temperature 73 °F 76 °F 94 °F (2010)
Min Temperature 49 °F 55 °F 36 °F (1974)
Degree Days  
Heating Degree Days 4 3  
Month to date heating degree days 17 24  
Since 1 July heating degree days 20 26  
Cooling Degree Days 0 3  
Month to date cooling degree days 144 127  
Year to date cooling degree days 1182 1144  
Growing Degree Days 10 (Base 50)    
Moisture  
Dew Point 48 °F    
Average Humidity 64    
Maximum Humidity 86    
Minimum Humidity 41    
Precipitation  
Precipitation 0.00 in 0.09 in 4.76 in (2006)
Month to date precipitation 1.63 2.22  
Year to date precipitation 45.27 33.89  
Snow  
Snow 0.00 in 0.00 in - ()
Month to date snowfall 0.0 0.0  
Since 1 July snowfall 0.0 0.0  
Since 1 September snowfall 0.0 0.0  
Snow Depth 0.00 in    
Sea Level Pressure  
Sea Level Pressure 30.04 in    
Wind  
Wind Speed 9 mph (ENE)    
Max Wind Speed 14 mph    
Max Gust Speed 18 mph    
Visibility 10 miles    
Events      
T = Trace of Precipitation, MM = Missing Value Source: NWS Daily Summary

Daily Weather History Graph

Daily Weather History Graph

Search for Another Location

Airport:

Trip Planner

Search our weather history database for the weather conditions in past years. The results will help you decide how hot, cold, wet, or windy it might be!

Date:

Astronomy

Sep. 23, 2013 Rise Set
Actual Time 7:27 AM EDT 7:33 PM EDT
Civil Twilight 7:00 AM EDT 7:59 PM EDT
Nautical Twilight 6:30 AM EDT 8:30 PM EDT
Astronomical Twilight 5:59 AM EDT 9:01 PM EDT
Moon 10:09 PM EDT (9/23) 11:41 AM EDT (9/23)
Length of Visible Light 12h 58m
Length of Day
12h 06m
Waning Gibbous, 81% of the Moon is Illuminated
Sep 23
Waning Gibbous
Sep 26
Last Quarter
Oct 4
New
Oct 11
First Quarter
Oct 18
Full

Hourly Weather History & Observations

Time (EDT) Temp. Dew Point Humidity Pressure Visibility Wind Dir Wind Speed Gust Speed Precip Events Conditions
12:54 AM 53.1 °F 46.0 °F 77% 29.99 in 10.0 mi NE 8.1 mph - N/A   Clear
1:54 AM 52.0 °F 46.0 °F 80% 29.99 in 10.0 mi NE 9.2 mph - N/A   Clear
2:54 AM 52.0 °F 46.0 °F 80% 30.00 in 10.0 mi ENE 8.1 mph - N/A   Clear
3:54 AM 51.1 °F 46.0 °F 83% 30.00 in 10.0 mi ENE 9.2 mph - N/A   Clear
4:54 AM 51.1 °F 46.0 °F 83% 30.01 in 10.0 mi ENE 6.9 mph - N/A   Clear
5:54 AM 51.1 °F 46.9 °F 86% 30.02 in 10.0 mi ENE 9.2 mph - N/A   Clear
6:54 AM 50.0 °F 46.0 °F 86% 30.04 in 10.0 mi ENE 6.9 mph - N/A   Clear
7:54 AM 50.0 °F 46.9 °F 89% 30.06 in 10.0 mi East 6.9 mph - N/A   Clear
8:54 AM 54.0 °F 48.9 °F 83% 30.08 in 10.0 mi East 8.1 mph - N/A   Clear
9:54 AM 60.1 °F 50.0 °F 69% 30.07 in 10.0 mi East 8.1 mph - N/A   Clear
10:54 AM 63.0 °F 48.0 °F 58% 30.08 in 10.0 mi East 11.5 mph - N/A   Clear
11:54 AM 66.0 °F 48.0 °F 52% 30.09 in 10.0 mi East 11.5 mph - N/A   Clear
12:54 PM 68.0 °F 46.0 °F 45% 30.07 in 10.0 mi East 10.4 mph - N/A   Clear
1:54 PM 70.0 °F 48.0 °F 46% 30.06 in 10.0 mi NE 6.9 mph - N/A   Clear
2:54 PM 72.0 °F 46.9 °F 41% 30.04 in 10.0 mi ENE 8.1 mph - N/A   Clear
3:54 PM 72.0 °F 46.9 °F 41% 30.03 in 10.0 mi ENE 8.1 mph - N/A   Clear
4:54 PM 73.0 °F 48.0 °F 41% 30.02 in 10.0 mi ENE 11.5 mph - N/A   Clear
5:54 PM 72.0 °F 48.9 °F 44% 30.02 in 10.0 mi NE 10.4 mph - N/A   Clear
6:54 PM 69.1 °F 48.9 °F 49% 30.02 in 10.0 mi East 5.8 mph - N/A   Clear
7:54 PM 64.9 °F 48.0 °F 54% 30.03 in 10.0 mi East 8.1 mph - N/A   Clear
8:54 PM 62.1 °F 48.9 °F 62% 30.03 in 10.0 mi ENE 6.9 mph - N/A   Clear
9:54 PM 57.9 °F 50.0 °F 75% 30.04 in 10.0 mi ENE 8.1 mph - N/A   Clear
10:54 PM 60.1 °F 50.0 °F 69% 30.04 in 10.0 mi East 10.4 mph - N/A   Clear
11:54 PM 59.0 °F 48.9 °F 69% 30.04 in 10.0 mi East 11.5 mph - N/A   Clear